Weather History for Concord, NH

Change the Weather History Date:

Friday, March 8, 2013

  Actual Average Record
Temperature  
Mean Temperature 38 °F 30 °F  
Max Temperature 46 °F 41 °F 67 °F (1878)
Min Temperature 29 °F 20 °F -7 °F (2007)
Degree Days  
Heating Degree Days 27 35  
Month to date heating degree days 253 287  
Since 1 July heating degree days 5182 5547  
Cooling Degree Days 0 0  
Month to date cooling degree days 0 0  
Year to date cooling degree days 0 0  
Moisture  
Dew Point 24 °F    
Average Humidity 60    
Maximum Humidity 92    
Minimum Humidity 28    
Precipitation  
Precipitation 0.21 in 0.11 in 2.00 in (1933)
Month to date precipitation 0.35 0.80  
Year to date precipitation 5.44 6.12  
Snow  
Snow 1.80 in 0.40 in 10.20 in (1916)
Month to date snowfall 4.6 3.5  
Since 1 July snowfall 71.8 51.0  
Snow Depth 15.00 in    
Sea Level Pressure  
Sea Level Pressure 30.05 in    
Wind  
Wind Speed 10 mph (North)    
Max Wind Speed 17 mph    
Max Gust Speed 25 mph    
Visibility 4 miles    
Events Fog , Snow    
T = Trace of Precipitation, MM = Missing Value Source: NWS Daily Summary

Daily Weather History Graph

Daily Weather History Graph

Search for Another Location

Airport:

Trip Planner

Search our weather history database for the weather conditions in past years. The results will help you decide how hot, cold, wet, or windy it might be!

Date:

Astronomy

Mar. 08, 2013 Rise Set
Actual Time 6:09 AM EST 5:44 PM EST
Civil Twilight 5:41 AM EST 6:12 PM EST
Nautical Twilight 5:08 AM EST 6:45 PM EST
Astronomical Twilight 4:35 AM EST 7:18 PM EST
Moon 3:56 AM EST (3/8) 2:31 PM EST (3/8)
Length of Visible Light 12h 30m
Length of Day
11h 34m
Waning Crescent, 12% of the Moon is Illuminated
Mar 8
Waning Crescent
Mar 11
New
Mar 19
First Quarter
Mar 27
Full
Apr 3
Last Quarter

Hourly Weather History & Observations

Time (EST) Temp. Windchill Dew Point Humidity Pressure Visibility Wind Dir Wind Speed Gust Speed Precip Events Conditions
12:03 AM 30.2 °F 20.8 °F 26.6 °F 86% 30.04 in 3.0 mi NNW 11.5 mph - 0.00 in Snow Light Snow
12:42 AM 30.2 °F 21.9 °F 26.6 °F 86% 30.05 in 1.8 mi North 9.2 mph - 0.00 in Snow Light Snow
12:49 AM 30.2 °F 21.9 °F 26.6 °F 86% 30.05 in 1.2 mi North 9.2 mph - 0.00 in Snow Light Snow
12:51 AM 30.0 °F 21.7 °F 26.1 °F 85% 30.06 in 1.2 mi North 9.2 mph - 0.00 in Snow Light Snow
1:07 AM 28.4 °F 20.4 °F 26.6 °F 93% 30.04 in 1.5 mi North 8.1 mph - 0.01 in Snow Light Snow
1:20 AM 28.4 °F 19.7 °F 26.6 °F 93% 30.04 in 1.2 mi NNW 9.2 mph - 0.02 in Snow Light Snow
1:29 AM 28.4 °F 19.7 °F 26.6 °F 93% 30.04 in 1.8 mi North 9.2 mph - 0.02 in Snow Light Snow
1:40 AM 28.4 °F 19.7 °F 26.6 °F 93% 30.03 in 2.5 mi North 9.2 mph - 0.02 in Snow Light Snow
1:44 AM 28.4 °F 19.7 °F 26.6 °F 93% 30.03 in 3.0 mi NNW 9.2 mph - 0.02 in Snow Light Snow
1:51 AM 28.9 °F 19.8 °F 26.1 °F 89% 30.04 in 5.0 mi NNW 10.4 mph - 0.02 in Snow Light Snow
2:51 AM 30.0 °F 20.5 °F 25.0 °F 82% 30.02 in 2.5 mi North 11.5 mph - 0.00 in Snow Light Snow
3:04 AM 30.2 °F 21.9 °F 26.6 °F 86% 30.00 in 1.2 mi North 9.2 mph - 0.00 in Snow Light Snow
3:16 AM 30.2 °F 23.4 °F 26.6 °F 86% 30.00 in 2.0 mi North 6.9 mph - 0.01 in Snow Light Snow
3:40 AM 30.2 °F 22.6 °F 26.6 °F 86% 30.01 in 1.5 mi North 8.1 mph - 0.01 in Snow Light Snow
3:47 AM 30.2 °F 21.3 °F 26.6 °F 86% 30.01 in 1.2 mi North 10.4 mph - 0.02 in Snow Light Snow
3:51 AM 30.0 °F 22.4 °F 26.1 °F 85% 30.02 in 1.2 mi North 8.1 mph - 0.02 in Snow Light Snow
3:58 AM 28.4 °F 20.4 °F 26.6 °F 93% 30.00 in 1.8 mi NNW 8.1 mph - 0.00 in Snow Light Snow
4:11 AM 28.4 °F 19.7 °F 26.6 °F 93% 30.00 in 1.2 mi North 9.2 mph - 0.01 in Snow Light Snow
4:19 AM 28.4 °F 20.4 °F 26.6 °F 93% 30.00 in 1.5 mi North 8.1 mph - 0.01 in Snow Light Snow
4:40 AM 30.2 °F 21.9 °F 26.6 °F 86% 30.00 in 2.0 mi North 9.2 mph - 0.02 in Snow Light Snow
4:51 AM 30.0 °F 21.7 °F 27.0 °F 88% 30.02 in 2.5 mi North 9.2 mph - 0.02 in Snow Light Snow
5:02 AM 30.2 °F 21.3 °F 26.6 °F 86% 30.00 in 3.0 mi North 10.4 mph - 0.00 in Snow Light Snow
5:13 AM 30.2 °F 22.6 °F 26.6 °F 86% 30.00 in 2.0 mi North 8.1 mph - 0.00 in Snow Light Snow
5:22 AM 30.2 °F 21.3 °F 26.6 °F 86% 30.00 in 1.8 mi North 10.4 mph 19.6 mph 0.00 in Snow Light Snow
5:36 AM 30.2 °F 22.6 °F 26.6 °F 86% 30.01 in 1.0 mi North 8.1 mph - 0.01 in Snow Light Snow
5:46 AM 30.2 °F 23.4 °F 26.6 °F 86% 30.01 in 0.8 mi North 6.9 mph - 0.02 in Snow Light Snow
5:51 AM 30.0 °F 23.2 °F 27.0 °F 88% 30.02 in 0.8 mi North 6.9 mph - 0.02 in Snow Light Snow
6:14 AM 28.4 °F 20.4 °F 26.6 °F 93% 30.01 in 0.5 mi North 8.1 mph - 0.03 in Fog , Snow Snow
6:41 AM 28.4 °F 19.7 °F 26.6 °F 93% 30.02 in 0.2 mi North 9.2 mph 17.3 mph 0.06 in Fog , Snow Heavy Snow
6:51 AM 28.9 °F 20.4 °F 27.0 °F 92% 30.04 in 0.2 mi North 9.2 mph - 0.08 in Fog , Snow Heavy Snow
6:58 AM 28.4 °F 20.4 °F 26.6 °F 93% 30.02 in 0.5 mi North 8.1 mph - 0.01 in Fog , Snow Snow
7:34 AM 28.4 °F 19.1 °F 26.6 °F 93% 30.03 in 0.5 mi North 10.4 mph - 0.03 in Fog , Snow Snow
7:51 AM 30.0 °F 22.4 °F 26.1 °F 85% 30.04 in 0.8 mi North 8.1 mph - 0.04 in Snow Light Snow
7:58 AM 30.2 °F 23.4 °F 26.6 °F 86% 30.03 in 1.2 mi North 6.9 mph - 0.00 in Snow Light Snow
8:25 AM 30.2 °F 22.6 °F 24.8 °F 80% 30.02 in 2.0 mi North 8.1 mph 21.9 mph 0.01 in Snow Light Snow
8:31 AM 30.2 °F 23.4 °F 24.8 °F 80% 30.02 in 4.0 mi North 6.9 mph 17.3 mph 0.01 in Snow Light Snow
8:51 AM 33.1 °F 25.5 °F 23.0 °F 66% 30.04 in 10.0 mi North 9.2 mph - 0.01 in   Overcast
9:51 AM 34.0 °F 25.5 °F 21.0 °F 59% 30.05 in 10.0 mi North 11.5 mph 19.6 mph N/A   Overcast
10:51 AM 37.0 °F 29.3 °F 19.9 °F 50% 30.06 in 10.0 mi North 11.5 mph 19.6 mph N/A   Overcast
11:51 AM 39.0 °F 30.6 °F 19.9 °F 46% 30.07 in 10.0 mi North 15.0 mph 24.2 mph N/A   Overcast
12:51 PM 41.0 °F 34.7 °F 18.0 °F 40% 30.06 in 10.0 mi North 10.4 mph - N/A   Mostly Cloudy
1:51 PM 44.1 °F 37.4 °F 18.0 °F 35% 30.06 in 10.0 mi NNE 13.8 mph 17.3 mph N/A   Scattered Clouds
2:51 PM 45.0 °F 38.5 °F 17.1 °F 33% 30.06 in 10.0 mi NNE 13.8 mph 18.4 mph N/A   Partly Cloudy
3:51 PM 46.0 °F 41.0 °F 16.0 °F 30% 30.08 in 10.0 mi NNE 10.4 mph 19.6 mph N/A   Partly Cloudy
4:51 PM 39.9 °F 34.5 °F 25.0 °F 55% 30.11 in 10.0 mi NW 8.1 mph - N/A   Clear
5:51 PM 39.9 °F 33.9 °F 24.1 °F 53% 30.13 in 10.0 mi NW 9.2 mph - N/A   Clear
6:51 PM 37.0 °F 31.6 °F 24.1 °F 59% 30.16 in 10.0 mi NW 6.9 mph - N/A   Clear
7:51 PM 36.0 °F 28.5 °F 23.0 °F 59% 30.17 in 10.0 mi NW 10.4 mph - N/A   Clear
8:51 PM 35.1 °F 26.9 °F 21.9 °F 59% 30.19 in 10.0 mi NW 11.5 mph - N/A   Clear
9:51 PM 33.1 °F 26.9 °F 19.9 °F 59% 30.20 in 10.0 mi NW 6.9 mph - N/A   Clear
10:51 PM 30.9 °F 22.8 °F 19.9 °F 64% 30.21 in 10.0 mi NW 9.2 mph - N/A   Clear
11:51 PM 32.0 °F 23.6 °F 19.9 °F 61% 30.20 in 10.0 mi NNW 10.4 mph - N/A   Clear